• In Portugal
  • List of Countries
  • For 7 days
  • Water Temperature
  • Satellite Maps
  • Weather Map
  • Weather Widgets
  • user-avatar
    Login

    Hourly Weather Kociolki

    Today, 20 June, Wednesday

    Time Temperature Precipitation Wind Pressure Humidity
    00:00 +13°C° 0 mm 3 mps 745 mmHg 94%
    01:00 +13°C° 0 mm 3 mps 745 mmHg 94%
    02:00 +13°C° 0 mm 3 mps 744 mmHg 95%
    03:00 +12°C° 0 mm 3 mps 745 mmHg 94%
    04:00 +12°C° 0 mm 3 mps 745 mmHg 94%
    05:00 +12°C° 0 mm 4 mps 745 mmHg 93%
    06:00 +14°C° 0 mm 4 mps 745 mmHg 86%
    07:00 +15°C° 0 mm 5 mps 745 mmHg 78%
    08:00 +16°C° 0 mm 5 mps 745 mmHg 71%
    09:00 +17°C° 0 mm 5 mps 745 mmHg 67%
    10:00 +19°C° 0 mm 5 mps 746 mmHg 64%
    11:00 +20°C° 0 mm 5 mps 746 mmHg 60%
    12:00 +20°C° 0 mm 5 mps 746 mmHg 59%
    13:00 +21°C° 0 mm 5 mps 746 mmHg 57%
    14:00 +22°C° 0 mm 5 mps 746 mmHg 56%
    15:00 +22°C° 0 mm 5 mps 745 mmHg 57%
    16:00 +21°C° 0 mm 5 mps 745 mmHg 58%
    17:00 +21°C° 0 mm 5 mps 745 mmHg 59%
    18:00 +20°C° 0 mm 4 mps 745 mmHg 65%
    19:00 +19°C° 0 mm 3 mps 745 mmHg 71%
    20:00 +18°C° 0 mm 2 mps 745 mmHg 78%
    21:00 +17°C° 0 mm 2 mps 744 mmHg 81%
    22:00 +16°C° 0 mm 2 mps 744 mmHg 84%
    23:00 +15°C° 0 mm 2 mps 744 mmHg 87%

    Tomorrow, 21 June, Thursday

    Time Temperature Precipitation Wind Pressure Humidity
    00:00 +15°C° 0 mm 2 mps 744 mmHg 86%
    01:00 +14°C° 0 mm 3 mps 744 mmHg 85%
    02:00 +14°C° 0 mm 3 mps 743 mmHg 84%
    03:00 +14°C° 0 mm 3 mps 743 mmHg 83%
    04:00 +16°C° 0 mm 3 mps 743 mmHg 82%
    05:00 +16°C° 0 mm 3 mps 742 mmHg 80%
    06:00 +18°C° 0 mm 3 mps 742 mmHg 78%
    07:00 +19°C° 0 mm 4 mps 742 mmHg 75%
    08:00 +21°C° 0 mm 4 mps 741 mmHg 73%
    09:00 +22°C° 0.1 mm 5 mps 741 mmHg 71%
    10:00 +23°C° 0.1 mm 5 mps 740 mmHg 69%
    11:00 +23°C° 0.1 mm 6 mps 740 mmHg 68%
    12:00 +24°C° 0.2 mm 6 mps 739 mmHg 65%
    13:00 +26°C° 0.2 mm 6 mps 738 mmHg 63%
    14:00 +27°C° 0.2 mm 6 mps 738 mmHg 60%
    15:00 +26°C° 0.5 mm 6 mps 737 mmHg 65%
    16:00 +26°C° 0.5 mm 5 mps 736 mmHg 69%
    17:00 +25°C° 0.5 mm 5 mps 735 mmHg 74%
    18:00 +23°C° 0.9 mm 5 mps 735 mmHg 77%
    19:00 +22°C° 0.9 mm 5 mps 734 mmHg 81%
    20:00 +21°C° 0.9 mm 5 mps 733 mmHg 85%
    21:00 +20°C° 0.4 mm 5 mps 733 mmHg 88%
    22:00 +17°C° 0.4 mm 5 mps 733 mmHg 91%
    23:00 +17°C° 0.4 mm 4 mps 733 mmHg 94%

    Day after tomorrow, 22 June, Friday

    Time Temperature Precipitation Wind Pressure Humidity
    00:00 +14°C° 0.7 mm 4 mps 733 mmHg 94%
    01:00 +13°C° 0.7 mm 4 mps 733 mmHg 93%
    02:00 +11°C° 0.7 mm 4 mps 733 mmHg 93%
    03:00 +10°C° 0 mm 5 mps 734 mmHg 92%
    04:00 +10°C° 0 mm 5 mps 734 mmHg 91%
    05:00 +9°C° 0 mm 6 mps 735 mmHg 90%
    06:00 +10°C° 0 mm 6 mps 735 mmHg 85%
    07:00 +10°C° 0 mm 7 mps 736 mmHg 79%
    08:00 +11°C° 0 mm 7 mps 736 mmHg 73%
    09:00 +12°C° 0 mm 7 mps 736 mmHg 68%
    10:00 +14°C° 0 mm 7 mps 736 mmHg 64%
    11:00 +15°C° 0 mm 7 mps 736 mmHg 59%
    12:00 +15°C° 0.1 mm 8 mps 736 mmHg 58%
    13:00 +15°C° 0.1 mm 8 mps 736 mmHg 56%
    14:00 +16°C° 0.1 mm 8 mps 736 mmHg 55%
    15:00 +15°C° 0.2 mm 8 mps 736 mmHg 60%
    16:00 +15°C° 0.2 mm 8 mps 736 mmHg 65%
    17:00 +14°C° 0.2 mm 7 mps 736 mmHg 69%
    18:00 +13°C° 0.2 mm 6 mps 737 mmHg 74%
    19:00 +13°C° 0.2 mm 5 mps 737 mmHg 79%
    20:00 +12°C° 0.2 mm 4 mps 737 mmHg 83%
    21:00 +11°C° 0 mm 4 mps 738 mmHg 86%
    22:00 +10°C° 0 mm 4 mps 738 mmHg 89%
    23:00 +9°C° 0 mm 3 mps 738 mmHg 92%

    23 June, Saturday

    Time Temperature Precipitation Wind Pressure Humidity
    00:00 +8°C° 0 mm 4 mps 738 mmHg 91%
    01:00 +7°C° 0 mm 4 mps 738 mmHg 90%
    02:00 +7°C° 0 mm 4 mps 738 mmHg 88%
    03:00 +7°C° 0 mm 4 mps 738 mmHg 89%
    04:00 +8°C° 0 mm 3 mps 738 mmHg 89%
    05:00 +8°C° 0 mm 3 mps 738 mmHg 89%
    06:00 +8°C° 0.1 mm 4 mps 738 mmHg 86%
    07:00 +11°C° 0.1 mm 4 mps 738 mmHg 82%
    08:00 +12°C° 0.1 mm 5 mps 738 mmHg 79%
    09:00 +12°C° 0.4 mm 5 mps 738 mmHg 80%
    10:00 +13°C° 0.4 mm 5 mps 738 mmHg 81%
    11:00 +13°C° 0.4 mm 5 mps 738 mmHg 82%
    12:00 +13°C° 0.5 mm 5 mps 738 mmHg 81%
    13:00 +14°C° 0.5 mm 5 mps 738 mmHg 80%
    14:00 +14°C° 0.5 mm 5 mps 738 mmHg 79%
    15:00 +14°C° 0.4 mm 5 mps 738 mmHg 80%
    16:00 +14°C° 0.4 mm 4 mps 738 mmHg 81%
    17:00 +14°C° 0.4 mm 4 mps 738 mmHg 82%
    18:00 +13°C° 0.3 mm 3 mps 738 mmHg 85%
    19:00 +12°C° 0.3 mm 3 mps 739 mmHg 87%
    20:00 +12°C° 0.3 mm 3 mps 739 mmHg 90%
    21:00 +11°C° 0.1 mm 3 mps 739 mmHg 92%
    22:00 +9°C° 0.1 mm 3 mps 739 mmHg 94%
    23:00 +8°C° 0.1 mm 3 mps 739 mmHg 95%

    24 June, Sunday

    Time Temperature Precipitation Wind Pressure Humidity
    00:00 +8°C° 0 mm 3 mps 740 mmHg 96%
    01:00 +8°C° 0 mm 3 mps 740 mmHg 96%
    02:00 +7°C° 0 mm 3 mps 740 mmHg 96%
    03:00 +7°C° 0 mm 3 mps 740 mmHg 96%
    04:00 +7°C° 0 mm 3 mps 741 mmHg 97%
    05:00 +7°C° 0 mm 3 mps 741 mmHg 97%
    06:00 +9°C° 0 mm 3 mps 741 mmHg 93%
    07:00 +10°C° 0 mm 3 mps 741 mmHg 89%
    08:00 +12°C° 0 mm 3 mps 742 mmHg 84%
    09:00 +13°C° 0.1 mm 3 mps 742 mmHg 78%
    10:00 +16°C° 0.1 mm 3 mps 742 mmHg 73%
    11:00 +17°C° 0.1 mm 3 mps 742 mmHg 67%
    12:00 +17°C° 0.4 mm 4 mps 742 mmHg 68%
    13:00 +17°C° 0.4 mm 4 mps 743 mmHg 69%
    14:00 +16°C° 0.4 mm 5 mps 743 mmHg 71%
    15:00 +16°C° 0.3 mm 5 mps 743 mmHg 70%
    16:00 +16°C° 0.3 mm 5 mps 743 mmHg 70%
    17:00 +17°C° 0.3 mm 4 mps 743 mmHg 70%
    18:00 +17°C° 0.1 mm 4 mps 743 mmHg 74%
    19:00 +16°C° 0.1 mm 3 mps 743 mmHg 77%
    20:00 +15°C° 0.1 mm 2 mps 744 mmHg 81%
    21:00 +14°C° 0 mm 2 mps 744 mmHg 84%
    22:00 +12°C° 0 mm 2 mps 744 mmHg 88%
    23:00 +10°C° 0 mm 2 mps 745 mmHg 92%

    25 June, Monday

    Time Temperature Precipitation Wind Pressure Humidity
    00:00 +9°C° 0 mm 2 mps 745 mmHg 92%
    01:00 +8°C° 0 mm 2 mps 745 mmHg 93%
    02:00 +8°C° 0 mm 2 mps 745 mmHg 93%
    03:00 +7°C° 0 mm 2 mps 745 mmHg 92%
    04:00 +7°C° 0 mm 2 mps 745 mmHg 90%
    05:00 +7°C° 0 mm 2 mps 746 mmHg 88%
    06:00 +9°C° 0 mm 2 mps 746 mmHg 82%
    07:00 +12°C° 0 mm 2 mps 746 mmHg 75%
    08:00 +14°C° 0 mm 2 mps 746 mmHg 68%
    09:00 +16°C° 0 mm 2 mps 747 mmHg 62%
    10:00 +17°C° 0 mm 2 mps 747 mmHg 57%
    11:00 +18°C° 0 mm 2 mps 747 mmHg 51%
    12:00 +19°C° 0 mm 2 mps 747 mmHg 50%
    13:00 +20°C° 0 mm 3 mps 747 mmHg 49%
    14:00 +21°C° 0 mm 3 mps 747 mmHg 49%
    15:00 +20°C° 0.1 mm 3 mps 747 mmHg 54%
    16:00 +20°C° 0.1 mm 3 mps 747 mmHg 59%
    17:00 +20°C° 0.1 mm 3 mps 747 mmHg 64%
    18:00 +19°C° 0 mm 3 mps 747 mmHg 69%
    19:00 +18°C° 0 mm 3 mps 747 mmHg 75%
    20:00 +17°C° 0 mm 2 mps 747 mmHg 81%
    21:00 +16°C° 0 mm 2 mps 748 mmHg 85%
    22:00 +14°C° 0 mm 2 mps 748 mmHg 88%
    23:00 +13°C° 0 mm 2 mps 748 mmHg 92%
    Show more